Regional Weather Roundup
Issued by NWS Upton, NY

Current Version | Previous Version | Graphics & Text | Print | Product List | Glossary Off
Versions: 1 2 3 4 5 6 7 8 9 10 11 12 13 14 15 16 17 18 19 20 21 22 23 24 25 26 27

000
ASUS41 KOKX 210908
RWROKX

REGIONAL WEATHER ROUNDUP
NATIONAL WEATHER SERVICE NEW YORK NY
400 AM EST TUE FEB 21 2017

NOTE: "FAIR" INDICATES FEW OR NO CLOUDS BELOW 12,000 FEET WITH NO
SIGNIFICANT WEATHER AND/OR OBSTRUCTIONS TO VISIBILITY.

NYZ071-072-176-178-NJZ106-104-211000-
NEW YORK CITY METRO AREA

CITY           SKY/WX    TMP DP  RH WIND       PRES   REMARKS
Central Park   CLEAR     37   8  30 NE10      30.38S WCI  30
Wall St Helipt NOT AVBL
LaGuardia APRT PTCLDY    37  15  40 NE7       30.36S WCI  32
Kennedy INTL   PTCLDY    33  16  49 NE7       30.37F WCI  27
Breezy Point     N/A     36 N/A N/A NE8         N/A  WCI  29
Newark/Liberty PTCLDY    33  15  47 N5        30.37R WCI  29
Teterboro      CLEAR     32  17  54 CALM      30.36S
$$

NYZ177-179-078>081-211000-
LONG ISLAND NEW YORK

CITY           SKY/WX    TMP DP  RH WIND       PRES   REMARKS
Jones Beach      N/A     34 N/A N/A NE10        N/A  WCI  26
Matinecock PT  NOT AVBL
Farmingdale    CLEAR     31  17  56 N5        30.36S WCI  26
MacArthur/ISP  PTCLDY    28  18  66 CALM      30.36S
Shirley        PTCLDY    25  17  72 CALM      30.37F
Westhampton    CLEAR     18  12  77 CALM      30.37F
Southampton    NOT AVBL
Bridgehampton  NOT AVBL
East Hampton     N/A     25  17  73 CALM      30.35F
Montauk          N/A     35  19  52 VRB5      30.37S WCI  31
$$

NYZ052-065-067-211000-
HUDSON VALLEY

CITY           SKY/WX    TMP DP  RH WIND       PRES   REMARKS
White Plains   CLEAR     26  14  60 CALM      30.33S
Newburgh       CLEAR     27  16  63 CALM      30.36F
Montgomery     CLOUDY    23  17  78 CALM      30.36R
Poughkeepsie   CLOUDY    22  17  81 CALM      30.37S
Albany         CLOUDY    21  13  71 CALM      30.38F
$$

NJZ001-105-106-008-010-013-015-019>022-104-211000-
NEW JERSEY

CITY           SKY/WX    TMP DP  RH WIND       PRES   REMARKS
Newark/Liberty PTCLDY    33  15  47 N5        30.37R WCI  29
Teterboro      CLEAR     32  17  54 CALM      30.36S
Caldwell       CLOUDY    27  19  72 CALM      30.38R
Somerville     CLOUDY    25  18  74 CALM      30.35R
Linden         NOT AVBL
Sussex         CLOUDY    23  19  85 SW3       30.37R
Andover          N/A     23  20  88 CALM      30.36R
Trenton        CLOUDY    32  15  49 NE6       30.35S WCI  26
Millville      CLOUDY    33  19  56 NE7       30.33S WCI  27
Atlantic City  CLOUDY    31  18  58 CALM      30.34S
Wrightstown    CLEAR     29  15  57 NE6       30.32S WCI  23
Toms River     CLOUDY    23  17  78 CALM      30.36R
Belmar         CLOUDY    31  19  61 NW3       30.37R
$$

PAZ047>061-062-071-211000-
EASTERN PENNSYLVANIA

CITY           SKY/WX    TMP DP  RH WIND       PRES   REMARKS
Philadelphia   CLOUDY    34  16  47 NE6       30.36S WCI  29
Allentown      CLOUDY    31  16  54 E5        30.35R WCI  26
Scranton       CLOUDY    27  17  66 E5        30.29F WCI  22
$$

CTZ002-004>006-009-010-012-RIZ004-006-007-MAZ004-011-015-211000-
SOUTHERN NEW ENGLAND
 IN CT

CITY           SKY/WX    TMP DP  RH WIND       PRES   REMARKS
Bradley INTL   CLOUDY    25  12  58 N5        30.38S WCI  19
Hartford       CLOUDY    24  17  74 CALM      30.39S
Danbury        CLOUDY    21  14  74 CALM      30.37R
Wtrbury/Oxford CLOUDY    30   9  40 NE6       30.35R WCI  24
Bridgeport     CLEAR     33  15  47 N6        30.37S WCI  28
Meriden        CLOUDY    23  15  71 CALM      30.37F
New Haven      CLEAR     29  13  51 N9        30.36F WCI  20
Chester          N/A     30  12  47 N6        30.35S WCI  24
Groton         CLEAR     29  15  56 N7        30.36F WCI  22
Wilimantic     CLOUDY    22  17  81 CALM      30.37F

 IN RI

CITY           SKY/WX    TMP DP  RH WIND       PRES   REMARKS
Providence     CLEAR     29  14  53 N8        30.37S WCI  21
Block Island   CLEAR     33  20  58 N7        30.36S WCI  27
Westerly       CLEAR     29  13  51 N5        30.37S WCI  24
 IN MA

CITY           SKY/WX    TMP DP  RH WIND       PRES   REMARKS
Boston         CLEAR     31  16  54 NW7       30.38S WCI  24
Worcester      CLOUDY    29   8  41 N6        30.32F WCI  23
Westfield      CLOUDY    19  14  81 CALM      30.37S
Provincetown   CLEAR     37  25  61 NE10      30.35R WCI  30
Nantucket      CLEAR     35  28  75 N10       30.32R WCI  27
$$

ANZ330-335-338-340-345-350-353-355-211000-
COASTAL MARINE OBSERVATIONS


STATION/POSITION TIME  SKY/WX   TEMP    WIND        PRES    VSBY  WAVE
                                AIR SEA DIR/SP/G                  HT/PER
                 (UTC)          (F)     (DEG/KT/KT) (MB)    (MI)  (FT/S)
NY HARB ENTRANCE 0850            39 42   60/ 14/ 16 1027.5          2/ 3
20 S FIRE ISLAND 0850            40 42   50/ 12/ 14 1027.2          2/ 4
GREAT SOUTH BAY  NOT AVBL
23 SSW MONTAUK P 0850            38 44              1027.9          3/ 4
15 E BARNEGAT LI 0830               44                N/A           3/ 5
HUDSON CANYON    0750               49              1027.2          3/ 5
KINGS POINT      0836            34 38              1027.9
EXECUTION ROCKS  NOT AVBL
CENTRAL LI SOUND 0815            36      40/ 10/ 12   N/A           1/ 2
EASTERN LI SOUND NOT AVBL
ROBBINS REEF     0836            38      70/ 11/ 12 1028.2
$$


>>>>>>>>>>>>>>>>>>>>>>>>>>>> KEY <<<<<<<<<<<<<<<<<<<<<<<<<<<
>                                                          <
>     SKY/WX - Sky Condition/Present Weather               <
>     TMP    - Temperature in Fahrenheit                   <
>     DP     - Dew Point in Fahrenheit                     <
>     RH     - Relative Humidity in Percent                <
>     WIND   - Direction (from) and Speed in MPH           <
>     PRES   - Mean Sea Level Pressure (inches of Hg)      <
>     WCI    - Wind Chill Index                            <
>     VSB    - VISIBILITY IN MILES                         <
>     HX     - HEAT INDEX                                  <
>     TC     - TEMPERATURE IN CELSIUS                      <
>     VRB    - VARIABLE WIND DIRECTION                     <
>                                                          <
>>>>>>>>>>>>>>>>>>>>>>>>>>>> KEY <<<<<<<<<<<<<<<<<<<<<<<<<<<




USA.gov is the U.S. government's official web portal to all federal, state and local government web resources and services.